Total_Precipitation_Accumulation
0.09 0.10 0.10 0.10 0.07 0.04 0.03 0.06 0.08 0.15 0.26 0.44 0.71 1.05 1.20 1.23 1.20 1.21 1.04 0.81 0.60 0.62 0.71 0.69 0.65 0.59 0.61 0.56 0.43 0.43 0.34 0.21 0.09 0.12 0.12 0.04 0.01 0.01 0.00 0.00 0.00 0.00 0.00
0.07 0.06 0.06 0.08 0.07 0.04 0.03 0.07 0.09 0.15 0.28 0.49 0.73 1.01 1.19 1.14 1.11 1.13 1.08 0.96 0.83 0.83 0.87 0.97 1.01 0.94 0.99 0.96 0.81 0.84 0.76 0.49 0.27 0.32 0.43 0.26 0.12 0.03 0.00 0.00 0.00 0.00 0.00
0.04 0.04 0.03 0.05 0.06 0.06 0.05 0.08 0.12 0.23 0.43 0.68 0.92 1.02 1.14 1.13 1.11 1.07 1.09 1.07 0.99 0.92 0.94 1.04 1.09 1.02 1.04 1.13 1.16 1.10 1.06 0.84 0.54 0.39 0.45 0.45 0.39 0.20 0.05 0.01 0.00 0.00 0.00
0.02 0.02 0.02 0.03 0.05 0.06 0.07 0.09 0.14 0.30 0.56 0.80 0.93 1.04 1.21 1.22 1.05 0.99 0.99 0.98 0.97 0.98 1.02 1.02 1.09 1.06 1.00 1.07 1.14 1.09 1.13 1.10 0.84 0.61 0.44 0.35 0.35 0.29 0.18 0.07 0.02 0.01 0.01
0.01 0.01 0.02 0.04 0.05 0.06 0.08 0.14 0.26 0.42 0.63 0.78 0.95 1.14 1.23 1.15 1.02 0.89 0.91 0.90 0.94 0.97 0.98 0.99 1.09 1.09 1.01 0.94 1.10 1.13 1.19 1.12 1.04 0.88 0.74 0.63 0.52 0.30 0.28 0.26 0.11 0.04 0.02
0.04 0.05 0.07 0.09 0.10 0.12 0.17 0.24 0.37 0.52 0.69 0.83 0.96 1.02 1.14 1.15 1.10 0.96 0.89 0.89 0.91 1.01 0.94 0.87 0.95 0.95 0.93 0.93 1.01 1.09 1.18 1.16 1.17 1.02 0.80 0.72 0.63 0.49 0.42 0.36 0.27 0.15 0.04
0.13 0.19 0.22 0.25 0.31 0.35 0.37 0.42 0.50 0.61 0.71 0.75 0.78 0.79 0.85 0.89 0.87 0.84 0.79 0.84 0.85 0.95 1.00 0.88 0.83 0.81 0.78 0.79 0.85 0.90 0.94 1.03 1.12 0.99 0.82 0.78 0.65 0.59 0.57 0.49 0.38 0.29 0.13
0.28 0.38 0.47 0.54 0.59 0.60 0.58 0.62 0.67 0.65 0.63 0.62 0.63 0.65 0.64 0.65 0.64 0.60 0.57 0.66 0.79 0.81 0.86 0.85 0.78 0.79 0.81 0.81 0.81 0.81 0.79 0.78 0.83 0.87 0.86 0.87 0.74 0.64 0.58 0.56 0.60 0.54 0.42
0.51 0.61 0.69 0.72 0.69 0.63 0.60 0.60 0.61 0.58 0.57 0.56 0.53 0.51 0.49 0.47 0.48 0.44 0.43 0.42 0.46 0.46 0.50 0.57 0.60 0.65 0.73 0.75 0.80 0.82 0.81 0.73 0.72 0.79 0.83 0.78 0.73 0.68 0.59 0.55 0.56 0.61 0.57
0.78 0.91 0.96 0.89 0.78 0.71 0.70 0.59 0.52 0.51 0.49 0.46 0.44 0.41 0.37 0.33 0.32 0.30 0.29 0.24 0.22 0.21 0.26 0.33 0.37 0.43 0.54 0.63 0.69 0.73 0.80 0.77 0.74 0.81 0.87 0.89 0.88 0.87 0.77 0.66 0.61 0.56 0.57
1.11 1.17 1.17 1.04 0.79 0.66 0.67 0.61 0.51 0.44 0.38 0.36 0.36 0.35 0.30 0.25 0.23 0.21 0.19 0.15 0.13 0.14 0.15 0.20 0.25 0.26 0.32 0.45 0.62 0.71 0.71 0.70 0.69 0.70 0.79 0.92 0.96 1.02 0.98 0.92 0.80 0.69 0.67
1.02 1.02 0.95 0.89 0.77 0.65 0.54 0.51 0.52 0.44 0.38 0.39 0.40 0.37 0.28 0.23 0.21 0.20 0.18 0.13 0.13 0.11 0.10 0.16 0.21 0.25 0.25 0.29 0.42 0.54 0.57 0.59 0.62 0.63 0.66 0.76 0.85 0.96 1.03 1.04 0.99 0.95 0.83
0.78 0.82 0.83 0.75 0.70 0.60 0.51 0.57 0.62 0.60 0.58 0.55 0.56 0.49 0.36 0.30 0.27 0.23 0.19 0.14 0.13 0.12 0.11 0.14 0.18 0.24 0.23 0.24 0.27 0.34 0.40 0.44 0.45 0.46 0.48 0.52 0.62 0.75 0.89 0.98 1.00 1.02 1.02
0.68 0.72 0.74 0.69 0.67 0.61 0.57 0.61 0.64 0.68 0.79 0.85 0.78 0.61 0.49 0.40 0.33 0.27 0.21 0.18 0.16 0.14 0.14 0.18 0.20 0.19 0.14 0.17 0.22 0.25 0.28 0.29 0.28 0.29 0.29 0.31 0.36 0.46 0.60 0.76 0.91 1.02 1.07
0.50 0.50 0.49 0.49 0.53 0.51 0.48 0.49 0.52 0.64 0.81 0.89 0.78 0.61 0.47 0.37 0.30 0.30 0.25 0.24 0.23 0.19 0.19 0.20 0.20 0.18 0.15 0.18 0.24 0.23 0.20 0.21 0.21 0.18 0.15 0.16 0.22 0.26 0.33 0.40 0.59 0.80 0.94
0.31 0.29 0.27 0.26 0.29 0.28 0.29 0.31 0.38 0.55 0.78 0.86 0.72 0.52 0.39 0.33 0.30 0.31 0.29 0.27 0.25 0.22 0.23 0.24 0.28 0.30 0.25 0.36 0.35 0.27 0.18 0.18 0.16 0.12 0.11 0.14 0.18 0.19 0.18 0.19 0.28 0.45 0.62
0.23 0.23 0.22 0.20 0.19 0.19 0.21 0.28 0.33 0.47 0.57 0.60 0.55 0.43 0.34 0.32 0.31 0.29 0.29 0.30 0.31 0.30 0.30 0.28 0.30 0.34 0.44 0.40 0.27 0.24 0.21 0.22 0.21 0.18 0.18 0.17 0.16 0.20 0.17 0.17 0.18 0.22 0.25
0.20 0.21 0.21 0.20 0.21 0.22 0.23 0.32 0.37 0.38 0.44 0.51 0.50 0.42 0.37 0.33 0.32 0.31 0.32 0.39 0.39 0.36 0.36 0.35 0.32 0.34 0.43 0.35 0.22 0.21 0.20 0.26 0.30 0.25 0.22 0.24 0.21 0.21 0.23 0.25 0.30 0.29 0.26
0.12 0.13 0.13 0.12 0.12 0.12 0.11 0.13 0.17 0.22 0.27 0.30 0.34 0.33 0.28 0.29 0.32 0.32 0.37 0.40 0.40 0.42 0.42 0.41 0.39 0.40 0.40 0.30 0.21 0.23 0.30 0.38 0.39 0.29 0.29 0.28 0.25 0.32 0.29 0.35 0.47 0.47 0.41
0.03 0.03 0.03 0.03 0.03 0.02 0.03 0.04 0.05 0.06 0.08 0.10 0.14 0.18 0.19 0.22 0.28 0.36 0.42 0.39 0.37 0.41 0.40 0.37 0.33 0.35 0.34 0.35 0.22 0.27 0.38 0.43 0.42 0.38 0.40 0.48 0.39 0.39 0.28 0.26 0.41 0.49 0.44
0.00 0.00 0.00 0.01 0.01 0.01 0.01 0.02 0.02 0.02 0.02 0.02 0.04 0.07 0.11 0.16 0.25 0.32 0.31 0.30 0.32 0.35 0.34 0.37 0.35 0.33 0.38 0.46 0.42 0.43 0.45 0.49 0.51 0.52 0.57 0.54 0.54 0.35 0.24 0.22 0.26 0.32 0.34
0.00 0.00 0.00 0.00 0.00 0.00 0.00 0.00 0.00 0.00 0.00 0.00 0.01 0.02 0.04 0.07 0.12 0.19 0.22 0.24 0.28 0.29 0.28 0.28 0.29 0.31 0.40 0.46 0.46 0.46 0.48 0.52 0.50 0.53 0.51 0.45 0.45 0.30 0.20 0.16 0.19 0.18 0.17
0.00 0.00 0.00 0.00 0.00 0.00 0.00 0.00 0.00 0.00 0.00 0.00 0.00 0.00 0.01 0.02 0.05 0.12 0.16 0.20 0.26 0.28 0.26 0.24 0.25 0.28 0.31 0.37 0.38 0.38 0.36 0.36 0.39 0.36 0.37 0.32 0.23 0.18 0.13 0.13 0.13 0.14 0.16
0.00 0.00 0.00 0.00 0.00 0.00 0.00 0.00 0.00 0.00 0.00 0.00 0.00 0.00 0.01 0.01 0.03 0.05 0.12 0.21 0.24 0.22 0.23 0.24 0.26 0.28 0.31 0.31 0.29 0.31 0.33 0.29 0.30 0.28 0.23 0.19 0.14 0.13 0.14 0.14 0.13 0.14 0.18
0.00 0.00 0.00 0.00 0.00 0.00 0.00 0.00 0.00 0.00 0.00 0.00 0.00 0.00 0.00 0.01 0.02 0.02 0.06 0.13 0.15 0.14 0.18 0.23 0.27 0.31 0.33 0.29 0.25 0.25 0.29 0.33 0.36 0.38 0.29 0.22 0.19 0.17 0.20 0.22 0.20 0.20 0.22
0.00 0.00 0.00 0.00 0.00 0.00 0.00 0.00 0.00 0.00 0.00 0.00 0.00 0.00 0.00 0.01 0.01 0.02 0.03 0.05 0.05 0.07 0.08 0.09 0.13 0.13 0.12 0.13 0.12 0.13 0.16 0.21 0.25 0.37 0.42 0.42 0.45 0.44 0.41 0.37 0.30 0.25 0.24